| time (UTC) | temp F | wind direction | speed knots | gust knots | rain 1hr in | rain 24hr in | rain mn in | humidity % | barometer mb |
| 20260507145210 | 53 | 245 | 1.7 | 1.7 | 0.00 | 0.00 | 0.00 | 56 | 1013.0 |
| 20260507144710 | 53 | 245 | 1.7 | 3.5 | 0.00 | 0.00 | 0.00 | 56 | 1013.0 |
| 20260507143709 | 52 | 245 | 1.7 | 2.6 | 0.00 | 0.00 | 0.00 | 55 | 1013.0 |
| 20260507143210 | 52 | 245 | 1.7 | 3.5 | 0.00 | 0.00 | 0.00 | 57 | 1013.0 |
| 20260507142710 | 52 | 245 | 1.7 | 3.5 | 0.00 | 0.00 | 0.00 | 56 | 1013.0 |
| 20260507142210 | 52 | 245 | 1.7 | 1.7 | 0.00 | 0.00 | 0.00 | 57 | 1013.0 |
| 20260507141709 | 51 | 245 | 2.6 | 2.6 | 0.00 | 0.00 | 0.00 | 59 | 1013.0 |
| 20260507141211 | 51 | 245 | 0.0 | 2.6 | 0.00 | 0.00 | 0.00 | 60 | 1013.0 |
| 20260507140710 | 50 | 245 | 0.0 | 2.6 | 0.00 | 0.00 | 0.00 | 63 | 1013.0 |
| 20260507140209 | 50 | 245 | 1.7 | 2.6 | 0.00 | 0.00 | 0.00 | 62 | 1013.0 |
| 20260507135709 | 50 | 245 | 0.0 | 0.0 | 0.00 | 0.00 | 0.00 | 61 | 1013.0 |
| 20260507135209 | 50 | 245 | 2.6 | 2.6 | 0.00 | 0.00 | 0.00 | 62 | 1013.0 |
| 20260507134710 | 49 | 245 | 0.0 | 0.9 | 0.00 | 0.00 | 0.00 | 67 | 1013.0 |
| 20260507134216 | 49 | 245 | 0.9 | 2.6 | 0.00 | 0.00 | 0.00 | 67 | 1013.0 |
| 20260507133710 | 48 | 245 | 0.0 | 0.9 | 0.00 | 0.00 | 0.00 | 71 | 1013.0 |
| 20260507133209 | 47 | 245 | 0.9 | 0.9 | 0.00 | 0.00 | 0.00 | 69 | 1013.0 |
| 20260507132710 | 47 | 245 | 0.0 | 0.9 | 0.00 | 0.00 | 0.00 | 71 | 1013.0 |
| 20260507132209 | 47 | 245 | 0.9 | 1.7 | 0.00 | 0.00 | 0.00 | 70 | 1013.0 |
| 20260507131709 | 46 | 245 | 0.0 | 0.9 | 0.00 | 0.00 | 0.00 | 68 | 1013.0 |
| 20260507131209 | 46 | 245 | 0.0 | 0.9 | 0.00 | 0.00 | 0.00 | 69 | 1013.0 |
| 20260507130712 | 45 | 245 | 1.7 | 2.6 | 0.00 | 0.00 | 0.00 | 69 | 1013.0 |
| 20260507130209 | 45 | 245 | 0.0 | 0.9 | 0.00 | 0.00 | 0.00 | 71 | 1013.0 |
| 20260507125710 | 44 | 245 | 0.0 | 0.9 | 0.00 | 0.00 | 0.00 | 69 | 1013.0 |
| 20260507125209 | 44 | 245 | 0.0 | 2.6 | 0.00 | 0.00 | 0.00 | 71 | 1013.0 |
| 20260507124710 | 44 | 245 | 0.0 | 0.9 | 0.00 | 0.00 | 0.00 | 71 | 1013.0 |
| 20260507124209 | 44 | 245 | 0.0 | 0.9 | 0.00 | 0.00 | 0.00 | 71 | 1013.0 |
| 20260507123709 | 43 | 245 | 0.0 | 0.9 | 0.00 | 0.00 | 0.00 | 72 | 1013.0 |
| 20260507123210 | 43 | 245 | 0.0 | 0.9 | 0.00 | 0.00 | 0.00 | 72 | 1013.0 |
| 20260507122709 | 43 | 245 | 0.9 | 0.9 | 0.00 | 0.00 | 0.00 | 75 | 1013.0 |
| 20260507122209 | 43 | 245 | 0.0 | 0.9 | 0.00 | 0.00 | 0.00 | 75 | 1013.0 |
| 20260507121713 | 42 | 245 | 0.0 | 0.0 | 0.00 | 0.00 | 0.00 | 79 | 1013.0 |
| 20260507121210 | 42 | 245 | 0.0 | 0.9 | 0.00 | 0.00 | 0.00 | 87 | 1013.0 |
| 20260507120710 | 42 | 245 | 0.9 | 0.9 | 0.00 | 0.00 | 0.00 | 94 | 1013.0 |
| 20260507120214 | 42 | 245 | 0.0 | 0.0 | 0.00 | 0.00 | 0.00 | 96 | 1013.0 |
| 20260507115709 | 41 | 245 | 0.0 | 0.0 | 0.00 | 0.00 | 0.00 | 97 | 1013.0 |
| 20260507115209 | 41 | 245 | 0.0 | 0.0 | 0.00 | 0.00 | 0.00 | 98 | 1014.0 |
| 20260507114709 | 41 | 245 | 0.0 | 0.0 | 0.00 | 0.00 | 0.00 | 98 | 1014.0 |
| 20260507114209 | 41 | 245 | 0.0 | 0.0 | 0.00 | 0.00 | 0.00 | 98 | 1014.0 |
| 20260507113710 | 41 | 245 | 0.0 | 1.7 | 0.00 | 0.00 | 0.00 | 98 | 1014.0 |
| 20260507113209 | 41 | 245 | 0.0 | 0.9 | 0.00 | 0.00 | 0.00 | 98 | 1014.0 |
| 20260507112710 | 41 | 245 | 0.0 | 2.6 | 0.00 | 0.00 | 0.00 | 98 | 1014.0 |
| 20260507112210 | 41 | 245 | 0.9 | 1.7 | 0.00 | 0.00 | 0.00 | 98 | 1014.0 |
| 20260507111710 | 41 | 245 | 0.0 | 1.7 | 0.00 | 0.00 | 0.00 | 99 | 1014.0 |
| 20260507111210 | 41 | 245 | 0.0 | 0.0 | 0.00 | 0.00 | 0.00 | 99 | 1014.0 |
| 20260507110710 | 41 | 245 | 0.0 | 0.0 | 0.00 | 0.00 | 0.00 | 99 | 1013.0 |
| 20260507110209 | 41 | 245 | 0.0 | 0.0 | 0.00 | 0.00 | 0.00 | 99 | 1013.0 |
| 20260507105710 | 40 | 245 | 0.0 | 0.0 | 0.00 | 0.00 | 0.00 | 99 | 1013.0 |
| 20260507105210 | 40 | 245 | 0.0 | 0.0 | 0.00 | 0.00 | 0.00 | 98 | 1013.0 |
| 20260507104709 | 40 | 245 | 0.0 | 0.0 | 0.00 | 0.00 | 0.00 | 99 | 1013.0 |
| 20260507104209 | 40 | 245 | 0.0 | 0.0 | 0.00 | 0.00 | 0.00 | 98 | 1013.0 |
| 20260507103710 | 40 | 245 | 0.0 | 0.0 | 0.00 | 0.00 | 0.00 | 98 | 1013.0 |
| 20260507103211 | 40 | 245 | 0.0 | 0.0 | 0.00 | 0.00 | 0.00 | 98 | 1013.0 |
| 20260507102710 | 40 | 245 | 0.0 | 0.0 | 0.00 | 0.00 | 0.00 | 98 | 1013.0 |
| 20260507102210 | 40 | 245 | 0.0 | 0.0 | 0.00 | 0.00 | 0.00 | 98 | 1013.0 |
| 20260507101710 | 40 | 245 | 0.0 | 0.0 | 0.00 | 0.00 | 0.00 | 98 | 1013.0 |
| 20260507101210 | 40 | 245 | 0.0 | 0.0 | 0.00 | 0.00 | 0.00 | 99 | 1013.0 |
| 20260507100709 | 40 | 245 | 0.0 | 0.0 | 0.00 | 0.00 | 0.00 | 99 | 1013.0 |
| 20260507100210 | 39 | 245 | 0.0 | 0.9 | 0.00 | 0.00 | 0.00 | 98 | 1013.0 |
| 20260507095709 | 39 | 245 | 0.0 | 0.0 | 0.00 | 0.00 | 0.00 | 98 | 1013.0 |
| 20260507095209 | 38 | 245 | 0.0 | 0.0 | 0.00 | 0.00 | 0.00 | 98 | 1013.0 |
| 20260507094710 | 38 | 245 | 0.0 | 0.0 | 0.00 | 0.00 | 0.00 | 98 | 1013.0 |
| 20260507094210 | 38 | 245 | 0.0 | 0.0 | 0.00 | 0.00 | 0.00 | 98 | 1013.0 |
| 20260507093709 | 38 | 245 | 0.0 | 0.0 | 0.00 | 0.00 | 0.00 | 98 | 1013.0 |
| 20260507093210 | 39 | 245 | 0.0 | 0.0 | 0.00 | 0.00 | 0.00 | 98 | 1013.0 |
| 20260507092710 | 38 | 245 | 0.0 | 0.0 | 0.00 | 0.00 | 0.00 | 98 | 1013.0 |
| 20260507092210 | 38 | 245 | 0.0 | 0.0 | 0.00 | 0.00 | 0.00 | 98 | 1013.0 |
| 20260507091709 | 38 | 245 | 0.0 | 0.0 | 0.00 | 0.00 | 0.00 | 98 | 1013.0 |
| 20260507091210 | 38 | 245 | 0.0 | 0.0 | 0.00 | 0.00 | 0.00 | 98 | 1013.0 |
| 20260507090709 | 38 | 245 | 0.0 | 0.0 | 0.00 | 0.00 | 0.00 | 98 | 1013.0 |
| 20260507090209 | 38 | 245 | 0.0 | 0.0 | 0.00 | 0.00 | 0.00 | 98 | 1013.0 |
| 20260507085709 | 38 | 245 | 0.0 | 0.0 | 0.00 | 0.00 | 0.00 | 97 | 1013.0 |
| 20260507085209 | 38 | 245 | 0.0 | 0.0 | 0.00 | 0.00 | 0.00 | 97 | 1013.0 |
| 20260507084709 | 38 | 245 | 0.0 | 0.0 | 0.00 | 0.00 | 0.00 | 97 | 1013.0 |
| 20260507084210 | 38 | 245 | 0.0 | 0.0 | 0.00 | 0.00 | 0.00 | 97 | 1013.0 |
| 20260507083710 | 39 | 245 | 0.0 | 0.0 | 0.00 | 0.00 | 0.00 | 97 | 1013.0 |
| 20260507083210 | 39 | 245 | 0.0 | 0.0 | 0.00 | 0.00 | 0.00 | 97 | 1013.0 |
| 20260507082709 | 39 | 245 | 0.0 | 0.0 | 0.00 | 0.00 | 0.00 | 97 | 1013.0 |
| 20260507082210 | 39 | 245 | 0.0 | 0.0 | 0.00 | 0.00 | 0.00 | 97 | 1013.0 |
| 20260507081711 | 39 | 245 | 0.0 | 0.0 | 0.00 | 0.00 | 0.00 | 97 | 1013.0 |
| 20260507081212 | 39 | 245 | 0.0 | 0.0 | 0.00 | 0.00 | 0.00 | 97 | 1013.0 |
| 20260507080709 | 39 | 245 | 0.0 | 0.0 | 0.00 | 0.00 | 0.00 | 97 | 1013.0 |
| 20260507080209 | 39 | 245 | 0.0 | 0.0 | 0.00 | 0.00 | 0.00 | 96 | 1013.0 |
| 20260507075710 | 39 | 245 | 0.0 | 0.0 | 0.00 | 0.00 | 0.00 | 96 | 1013.0 |
| 20260507075209 | 39 | 245 | 0.0 | 0.0 | 0.00 | 0.00 | 0.00 | 96 | 1013.0 |
| 20260507074709 | 40 | 245 | 0.0 | 0.0 | 0.00 | 0.00 | 0.00 | 96 | 1013.0 |
| 20260507074210 | 40 | 245 | 0.0 | 0.0 | 0.00 | 0.00 | 0.00 | 96 | 1013.0 |
| 20260507073711 | 40 | 245 | 0.0 | 0.0 | 0.00 | 0.00 | 0.00 | 96 | 1013.0 |
| 20260507073211 | 40 | 245 | 0.0 | 0.0 | 0.00 | 0.00 | 0.00 | 96 | 1013.0 |
| 20260507072709 | 40 | 245 | 0.0 | 0.0 | 0.00 | 0.00 | 0.00 | 96 | 1013.0 |
| 20260507072209 | 40 | 245 | 0.0 | 0.0 | 0.00 | 0.00 | 0.00 | 95 | 1013.0 |
| 20260507071709 | 40 | 245 | 0.0 | 0.0 | 0.00 | 0.00 | 0.00 | 95 | 1013.0 |
| 20260507071209 | 40 | 245 | 0.0 | 0.0 | 0.00 | 0.00 | 0.00 | 95 | 1013.0 |
| 20260507070709 | 40 | 245 | 0.0 | 0.0 | 0.00 | 0.00 | 0.00 | 95 | 1013.0 |
| 20260507070210 | 40 | 245 | 0.0 | 0.0 | 0.00 | 0.00 | 0.00 | 95 | 1013.0 |
| 20260507065709 | 41 | 245 | 0.0 | 0.0 | 0.00 | 0.00 | 0.00 | 95 | 1013.0 |
| 20260507065209 | 41 | 245 | 0.0 | 0.0 | 0.00 | 0.00 | 0.00 | 95 | 1013.0 |
| 20260507064711 | 41 | 245 | 0.0 | 0.0 | 0.00 | 0.00 | 0.00 | 95 | 1013.0 |
| 20260507064209 | 41 | 245 | 0.0 | 0.0 | 0.00 | 0.00 | 0.00 | 95 | 1013.0 |
| 20260507063714 | 41 | 245 | 0.0 | 0.0 | 0.00 | 0.00 | 0.00 | 94 | 1013.0 |
| 20260507063210 | 42 | 245 | 0.0 | 0.0 | 0.00 | 0.00 | 0.00 | 94 | 1013.0 |
| 20260507062709 | 42 | 245 | 0.0 | 0.0 | 0.00 | 0.00 | 0.00 | 94 | 1013.0 |
| 20260507062212 | 42 | 245 | 0.0 | 0.0 | 0.00 | 0.00 | 0.00 | 94 | 1013.0 |
| 20260507061709 | 43 | 245 | 0.0 | 0.0 | 0.00 | 0.00 | 0.00 | 94 | 1013.0 |
| 20260507061209 | 43 | 245 | 0.0 | 0.0 | 0.00 | 0.00 | 0.00 | 94 | 1013.0 |
| 20260507060710 | 43 | 245 | 0.0 | 0.0 | 0.00 | 0.00 | 0.00 | 94 | 1013.0 |
| 20260507060209 | 43 | 245 | 0.0 | 0.0 | 0.00 | 0.00 | 0.00 | 94 | 1013.0 |
| 20260507055710 | 43 | 245 | 0.0 | 0.0 | 0.00 | 0.00 | 0.00 | 93 | 1013.0 |
| 20260507055209 | 43 | 245 | 0.0 | 0.0 | 0.00 | 0.00 | 0.00 | 93 | 1013.0 |
| 20260507054709 | 43 | 245 | 0.0 | 0.0 | 0.00 | 0.00 | 0.00 | 93 | 1013.0 |
| 20260507054210 | 43 | 245 | 0.0 | 0.0 | 0.00 | 0.00 | 0.00 | 92 | 1013.0 |
| 20260507053709 | 43 | 245 | 0.0 | 0.0 | 0.00 | 0.00 | 0.00 | 92 | 1013.0 |
| 20260507053210 | 43 | 245 | 0.0 | 0.0 | 0.00 | 0.00 | 0.00 | 92 | 1013.0 |
| 20260507052709 | 44 | 245 | 0.0 | 0.0 | 0.00 | 0.00 | 0.00 | 92 | 1013.0 |
| 20260507052209 | 43 | 245 | 0.0 | 0.0 | 0.00 | 0.00 | 0.00 | 91 | 1013.0 |
| 20260507051710 | 44 | 245 | 0.0 | 0.0 | 0.00 | 0.00 | 0.00 | 91 | 1013.0 |
| 20260507051210 | 44 | 245 | 0.0 | 0.0 | 0.00 | 0.00 | 0.00 | 91 | 1013.0 |
| 20260507050710 | 44 | 245 | 0.0 | 0.0 | 0.00 | 0.00 | 0.00 | 91 | 1013.0 |
| 20260507050209 | 44 | 245 | 0.0 | 0.0 | 0.00 | 0.00 | 0.00 | 91 | 1013.0 |
| 20260507045710 | 44 | 245 | 0.0 | 0.0 | 0.00 | 0.00 | 0.00 | 91 | 1014.0 |
| 20260507045209 | 44 | 245 | 0.0 | 0.9 | 0.00 | 0.00 | 0.00 | 91 | 1014.0 |
| 20260507044710 | 44 | 245 | 0.0 | 0.0 | 0.00 | 0.00 | 0.00 | 91 | 1014.0 |
| 20260507044210 | 44 | 245 | 0.9 | 0.9 | 0.00 | 0.00 | 0.00 | 91 | 1014.0 |
| 20260507043710 | 44 | 245 | 0.0 | 0.9 | 0.00 | 0.00 | 0.00 | 91 | 1014.0 |
| 20260507043209 | 44 | 245 | 0.0 | 0.9 | 0.00 | 0.00 | 0.00 | 91 | 1014.0 |
| 20260507042711 | 44 | 245 | 0.0 | 1.7 | 0.00 | 0.00 | 0.00 | 91 | 1014.0 |
| 20260507042209 | 44 | 245 | 0.9 | 0.9 | 0.00 | 0.00 | 0.00 | 91 | 1014.0 |
| 20260507041710 | 44 | 245 | 0.0 | 0.0 | 0.00 | 0.00 | 0.00 | 91 | 1014.0 |
| 20260507041209 | 44 | 245 | 0.0 | 0.0 | 0.00 | 0.00 | 0.00 | 91 | 1014.0 |
| 20260507040709 | 44 | 245 | 0.0 | 0.0 | 0.00 | 0.00 | 0.00 | 91 | 1014.0 |
| 20260507040209 | 44 | 245 | 0.0 | 0.0 | 0.00 | 0.00 | 0.00 | 91 | 1013.0 |
| 20260507035709 | 44 | 245 | 0.9 | 0.9 | 0.00 | 0.00 | 0.44 | 91 | 1014.0 |
| 20260507035210 | 44 | 245 | 0.9 | 1.7 | 0.00 | 0.00 | 0.44 | 91 | 1013.0 |
| 20260507034709 | 44 | 245 | 0.9 | 1.7 | 0.00 | 0.00 | 0.44 | 91 | 1014.0 |
| 20260507034209 | 44 | 245 | 0.9 | 0.9 | 0.00 | 0.00 | 0.44 | 91 | 1013.0 |
| 20260507033711 | 44 | 245 | 0.9 | 0.9 | 0.00 | 0.00 | 0.44 | 91 | 1013.0 |
| 20260507033209 | 44 | 245 | 0.9 | 0.9 | 0.00 | 0.00 | 0.44 | 90 | 1013.0 |
| 20260507032709 | 44 | 245 | 0.0 | 0.9 | 0.00 | 0.00 | 0.44 | 90 | 1013.0 |
| 20260507032210 | 44 | 245 | 0.0 | 0.9 | 0.00 | 0.00 | 0.44 | 90 | 1013.0 |
| 20260507031711 | 44 | 245 | 0.0 | 1.7 | 0.00 | 0.00 | 0.44 | 90 | 1013.0 |
| 20260507030732 | 44 | 245 | 0.0 | 1.7 | 0.00 | 0.00 | 0.44 | 90 | 1014.0 |
| 20260507030211 | 44 | 245 | 1.7 | 1.7 | 0.00 | 0.00 | 0.44 | 90 | 1014.0 |
| 20260507025709 | 44 | 245 | 0.0 | 0.9 | 0.00 | 0.00 | 0.44 | 89 | 1014.0 |
| 20260507025209 | 44 | 245 | 0.0 | 0.0 | 0.00 | 0.00 | 0.44 | 89 | 1014.0 |
| 20260507024710 | 44 | 245 | 0.0 | 0.9 | 0.00 | 0.00 | 0.44 | 89 | 1013.0 |
| 20260507023723 | 44 | 245 | 0.0 | 0.9 | 0.00 | 0.00 | 0.44 | 89 | 1013.0 |
| 20260507023210 | 44 | 245 | 0.0 | 0.9 | 0.00 | 0.00 | 0.44 | 89 | 1013.0 |
| 20260507022710 | 44 | 245 | 0.0 | 0.9 | 0.00 | 0.00 | 0.44 | 89 | 1013.0 |
| 20260507022209 | 44 | 245 | 0.0 | 0.9 | 0.00 | 0.00 | 0.44 | 89 | 1013.0 |
| 20260507021710 | 44 | 245 | 0.9 | 0.9 | 0.00 | 0.00 | 0.44 | 89 | 1013.0 |
| 20260507021210 | 44 | 245 | 0.9 | 1.7 | 0.00 | 0.00 | 0.44 | 89 | 1014.0 |
| 20260507020709 | 44 | 245 | 0.0 | 0.9 | 0.00 | 0.00 | 0.44 | 89 | 1014.0 |
| 20260507020210 | 44 | 245 | 0.9 | 0.9 | 0.00 | 0.00 | 0.44 | 89 | 1014.0 |
| 20260507015709 | 44 | 245 | 0.9 | 0.9 | 0.00 | 0.00 | 0.44 | 89 | 1014.0 |
| 20260507015210 | 44 | 245 | 0.9 | 0.9 | 0.00 | 0.00 | 0.44 | 89 | 1014.0 |
| 20260507014710 | 44 | 245 | 0.0 | 0.0 | 0.00 | 0.00 | 0.44 | 90 | 1014.0 |
| 20260507014209 | 44 | 245 | 0.0 | 0.0 | 0.00 | 0.00 | 0.44 | 90 | 1014.0 |
| 20260507013710 | 44 | 245 | 0.0 | 0.0 | 0.00 | 0.00 | 0.44 | 90 | 1014.0 |
| 20260507013209 | 44 | 245 | 0.0 | 0.0 | 0.00 | 0.00 | 0.44 | 90 | 1014.0 |
| 20260507012710 | 44 | 245 | 0.0 | 0.0 | 0.00 | 0.00 | 0.44 | 90 | 1014.0 |
| 20260507012209 | 45 | 245 | 0.0 | 0.0 | 0.00 | 0.00 | 0.44 | 91 | 1014.0 |
| 20260507011709 | 45 | 245 | 0.0 | 0.0 | 0.00 | 0.00 | 0.44 | 90 | 1014.0 |
| 20260507011210 | 45 | 245 | 0.0 | 0.0 | 0.00 | 0.00 | 0.44 | 91 | 1013.0 |
| 20260507010710 | 45 | 245 | 0.0 | 0.0 | 0.00 | 0.00 | 0.44 | 90 | 1013.0 |
| 20260507010209 | 45 | 245 | 0.0 | 0.0 | 0.00 | 0.00 | 0.44 | 90 | 1013.0 |
| 20260507005710 | 45 | 245 | 0.0 | 0.0 | 0.00 | 0.00 | 0.44 | 90 | 1013.0 |
| 20260507005210 | 45 | 245 | 0.0 | 0.0 | 0.00 | 0.00 | 0.44 | 90 | 1013.0 |
| 20260507004710 | 45 | 245 | 0.0 | 0.0 | 0.00 | 0.00 | 0.44 | 90 | 1013.0 |
| 20260507004209 | 45 | 245 | 0.0 | 0.0 | 0.00 | 0.00 | 0.44 | 90 | 1013.0 |
| 20260507003711 | 45 | 245 | 0.0 | 0.0 | 0.00 | 0.00 | 0.44 | 89 | 1013.0 |
| 20260507003210 | 45 | 245 | 0.0 | 0.0 | 0.00 | 0.00 | 0.44 | 89 | 1013.0 |
| 20260507002709 | 45 | 245 | 0.0 | 0.0 | 0.00 | 0.00 | 0.44 | 89 | 1013.0 |
| 20260507002209 | 45 | 245 | 0.0 | 0.0 | 0.00 | 0.00 | 0.44 | 89 | 1013.0 |
| 20260507001710 | 45 | 245 | 0.0 | 0.0 | 0.00 | 0.00 | 0.44 | 89 | 1013.0 |
| 20260507001210 | 45 | 245 | 0.0 | 0.0 | 0.00 | 0.00 | 0.44 | 89 | 1013.0 |
| 20260507000709 | 45 | 245 | 0.0 | 0.0 | 0.00 | 0.00 | 0.44 | 90 | 1013.0 |
| 20260507000212 | 45 | 245 | 0.0 | 0.0 | 0.00 | 0.00 | 0.44 | 88 | 1013.0 |
| 20260506235709 | 45 | 245 | 0.0 | 0.0 | 0.00 | 0.00 | 0.44 | 88 | 1013.0 |
| 20260506235210 | 45 | 245 | 0.0 | 0.0 | 0.00 | 0.00 | 0.44 | 87 | 1013.0 |
| 20260506234709 | 45 | 245 | 0.0 | 0.0 | 0.00 | 0.00 | 0.44 | 88 | 1013.0 |
| 20260506234209 | 45 | 245 | 0.0 | 1.7 | 0.00 | 0.00 | 0.44 | 87 | 1013.0 |
| 20260506233710 | 45 | 245 | 0.0 | 1.7 | 0.00 | 0.00 | 0.44 | 87 | 1013.0 |
| 20260506233209 | 46 | 245 | 0.0 | 0.9 | 0.00 | 0.00 | 0.44 | 88 | 1013.0 |
| 20260506232300 | 45 | 245 | 0.0 | 0.9 | 0.00 | 0.00 | 0.44 | 88 | 1013.0 |
| 20260506231709 | 45 | 245 | 0.9 | 2.6 | 0.00 | 0.00 | 0.44 | 88 | 1013.0 |
| 20260506231209 | 45 | 245 | 1.7 | 1.7 | 0.00 | 0.00 | 0.44 | 88 | 1013.0 |
| 20260506230710 | 45 | 245 | 0.0 | 0.9 | 0.00 | 0.00 | 0.44 | 88 | 1013.0 |
| 20260506230209 | 45 | 245 | 0.9 | 0.9 | 0.00 | 0.00 | 0.44 | 88 | 1013.0 |
| 20260506225710 | 45 | 245 | 1.7 | 1.7 | 0.00 | 0.00 | 0.44 | 88 | 1013.0 |
| 20260506225209 | 45 | 245 | 1.7 | 1.7 | 0.00 | 0.00 | 0.44 | 89 | 1012.0 |
| 20260506224710 | 45 | 245 | 1.7 | 3.5 | 0.00 | 0.00 | 0.44 | 89 | 1012.0 |
| 20260506224209 | 45 | 245 | 1.7 | 1.7 | 0.00 | 0.00 | 0.44 | 90 | 1012.0 |
| 20260506223709 | 45 | 245 | 1.7 | 3.5 | 0.00 | 0.00 | 0.44 | 90 | 1012.0 |
| 20260506223209 | 45 | 245 | 0.0 | 1.7 | 0.00 | 0.00 | 0.44 | 91 | 1012.0 |
| 20260506222709 | 45 | 245 | 0.9 | 2.6 | 0.00 | 0.00 | 0.44 | 91 | 1012.0 |
| 20260506222210 | 45 | 245 | 2.6 | 3.5 | 0.00 | 0.00 | 0.44 | 91 | 1012.0 |
| 20260506221709 | 44 | 245 | 0.9 | 4.3 | 0.00 | 0.00 | 0.44 | 91 | 1012.0 |
| 20260506221210 | 44 | 245 | 2.6 | 5.2 | 0.00 | 0.00 | 0.44 | 91 | 1012.0 |
| 20260506220710 | 44 | 245 | 5.2 | 5.2 | 0.00 | 0.00 | 0.44 | 92 | 1012.0 |
| 20260506220210 | 45 | 245 | 3.5 | 3.5 | 0.00 | 0.00 | 0.44 | 92 | 1012.0 |
| 20260506215709 | 44 | 245 | 2.6 | 4.3 | 0.00 | 0.00 | 0.44 | 92 | 1012.0 |
| 20260506215210 | 44 | 245 | 1.7 | 5.2 | 0.00 | 0.00 | 0.44 | 93 | 1012.0 |
| 20260506214710 | 44 | 245 | 3.5 | 5.2 | 0.00 | 0.00 | 0.44 | 94 | 1012.0 |
| 20260506214210 | 44 | 245 | 2.6 | 3.5 | 0.00 | 0.00 | 0.44 | 94 | 1012.0 |
| 20260506213709 | 44 | 245 | 0.0 | 2.6 | 0.00 | 0.00 | 0.44 | 94 | 1012.0 |
| 20260506213210 | 44 | 245 | 1.7 | 5.2 | 0.00 | 0.00 | 0.44 | 94 | 1012.0 |
| 20260506212709 | 44 | 245 | 1.7 | 6.1 | 0.00 | 0.00 | 0.44 | 94 | 1012.0 |
| 20260506212210 | 44 | 245 | 3.5 | 7.8 | 0.00 | 0.00 | 0.44 | 93 | 1012.0 |
| 20260506211709 | 44 | 245 | 1.7 | 9.6 | 0.00 | 0.00 | 0.44 | 93 | 1011.0 |
| 20260506211209 | 44 | 245 | 4.3 | 8.7 | 0.00 | 0.00 | 0.44 | 93 | 1011.0 |
| 20260506210709 | 44 | 245 | 2.6 | 7.8 | 0.00 | 0.00 | 0.44 | 93 | 1011.0 |
| 20260506210209 | 45 | 245 | 6.1 | 6.1 | 0.00 | 0.00 | 0.44 | 93 | 1011.0 |
| 20260506205710 | 45 | 245 | 1.7 | 3.5 | 0.00 | 0.00 | 0.44 | 91 | 1011.0 |
| 20260506205209 | 46 | 245 | 5.2 | 5.2 | 0.00 | 0.00 | 0.44 | 91 | 1011.0 |
| 20260506204709 | 46 | 245 | 6.1 | 7.0 | 0.00 | 0.00 | 0.44 | 89 | 1011.0 |
| 20260506204209 | 47 | 245 | 5.2 | 7.8 | 0.00 | 0.00 | 0.44 | 88 | 1011.0 |
| 20260506203710 | 48 | 245 | 2.6 | 4.3 | 0.00 | 0.00 | 0.44 | 87 | 1011.0 |
| 20260506203210 | 49 | 245 | 1.7 | 1.7 | 0.00 | 0.00 | 0.44 | 84 | 1011.0 |
| 20260506202709 | 51 | 245 | 6.1 | 6.1 | 0.00 | 0.00 | 0.44 | 79 | 1011.0 |
| 20260506202209 | 52 | 245 | 1.7 | 2.6 | 0.00 | 0.00 | 0.44 | 78 | 1011.0 |
| 20260506201709 | 52 | 245 | 1.7 | 7.0 | 0.00 | 0.00 | 0.44 | 77 | 1010.0 |
| 20260506201209 | 52 | 245 | 2.6 | 5.2 | 0.00 | 0.00 | 0.44 | 77 | 1010.0 |
| 20260506200710 | 52 | 245 | 4.3 | 7.8 | 0.00 | 0.00 | 0.44 | 78 | 1010.0 |
| 20260506200209 | 52 | 245 | 1.7 | 6.1 | 0.00 | 0.00 | 0.44 | 77 | 1010.0 |
| 20260506195710 | 53 | 245 | 5.2 | 9.6 | 0.00 | 0.00 | 0.44 | 76 | 1010.0 |
| 20260506195209 | 54 | 245 | 3.5 | 7.0 | 0.00 | 0.00 | 0.44 | 75 | 1010.0 |
| 20260506194709 | 55 | 245 | 3.5 | 6.1 | 0.00 | 0.00 | 0.44 | 74 | 1010.0 |
| 20260506194209 | 55 | 245 | 1.7 | 1.7 | 0.00 | 0.00 | 0.44 | 77 | 1010.0 |
| 20260506193711 | 54 | 245 | 1.7 | 1.7 | 0.00 | 0.00 | 0.44 | 75 | 1010.0 |
| 20260506193209 | 53 | 245 | 1.7 | 1.7 | 0.00 | 0.00 | 0.44 | 77 | 1010.0 |
| 20260506192713 | 53 | 245 | 0.9 | 2.6 | 0.00 | 0.00 | 0.44 | 79 | 1010.0 |
| 20260506192211 | 52 | 245 | 3.5 | 5.2 | 0.00 | 0.00 | 0.44 | 81 | 1010.0 |
| 20260506191715 | 51 | 245 | 0.0 | 1.7 | 0.00 | 0.00 | 0.44 | 83 | 1010.0 |
| 20260506191210 | 51 | 245 | 0.9 | 2.6 | 0.00 | 0.00 | 0.44 | 83 | 1010.0 |
| 20260506190712 | 51 | 245 | 0.9 | 1.7 | 0.00 | 0.00 | 0.44 | 84 | 1010.0 |
| 20260506190209 | 51 | 245 | 0.9 | 1.7 | 0.00 | 0.00 | 0.44 | 83 | 1010.0 |
| 20260506185710 | 51 | 245 | 1.7 | 2.6 | 0.00 | 0.00 | 0.44 | 82 | 1010.0 |
| 20260506184747 | 53 | 245 | 1.7 | 1.7 | 0.00 | 0.00 | 0.44 | 78 | 1010.0 |
| 20260506184210 | 53 | 245 | 0.0 | 1.7 | 0.00 | 0.00 | 0.44 | 77 | 1010.0 |
| 20260506183710 | 53 | 245 | 0.0 | 1.7 | 0.00 | 0.00 | 0.44 | 75 | 1010.0 |
| 20260506183210 | 54 | 245 | 0.0 | 1.7 | 0.00 | 0.00 | 0.44 | 76 | 1010.0 |
| 20260506182709 | 54 | 245 | 0.9 | 2.6 | 0.00 | 0.00 | 0.44 | 78 | 1010.0 |
| 20260506182210 | 53 | 245 | 0.0 | 1.7 | 0.00 | 0.00 | 0.44 | 81 | 1010.0 |
| 20260506181709 | 52 | 245 | 0.0 | 0.9 | 0.00 | 0.00 | 0.44 | 82 | 1010.0 |
| 20260506181209 | 52 | 245 | 0.9 | 0.9 | 0.00 | 0.00 | 0.44 | 83 | 1010.0 |
| 20260506180709 | 51 | 245 | 0.0 | 0.0 | 0.00 | 0.00 | 0.44 | 82 | 1010.0 |
| 20260506180210 | 51 | 245 | 0.0 | 0.0 | 0.00 | 0.00 | 0.44 | 81 | 1010.0 |
| 20260506175710 | 52 | 245 | 0.0 | 0.0 | 0.00 | 0.00 | 0.44 | 80 | 1010.0 |
| 20260506175209 | 52 | 245 | 0.0 | 0.0 | 0.00 | 0.00 | 0.44 | 82 | 1010.0 |
| 20260506174709 | 52 | 245 | 0.0 | 0.9 | 0.00 | 0.00 | 0.44 | 81 | 1010.0 |
| 20260506174211 | 52 | 245 | 0.0 | 0.0 | 0.00 | 0.00 | 0.44 | 79 | 1010.0 |
| 20260506173710 | 52 | 245 | 1.7 | 2.6 | 0.00 | 0.00 | 0.44 | 80 | 1010.0 |
| 20260506173210 | 52 | 245 | 0.0 | 0.0 | 0.00 | 0.00 | 0.44 | 80 | 1010.0 |
| 20260506172709 | 52 | 245 | 0.0 | 1.7 | 0.00 | 0.00 | 0.44 | 79 | 1010.0 |
| 20260506172209 | 52 | 245 | 0.0 | 1.7 | 0.00 | 0.00 | 0.44 | 81 | 1010.0 |
| 20260506171710 | 52 | 245 | 0.0 | 1.7 | 0.00 | 0.00 | 0.44 | 81 | 1010.0 |
| 20260506171209 | 52 | 245 | 0.9 | 0.9 | 0.00 | 0.00 | 0.44 | 81 | 1010.0 |
| 20260506170709 | 52 | 245 | 0.0 | 1.7 | 0.00 | 0.00 | 0.44 | 82 | 1010.0 |
| 20260506170210 | 52 | 245 | 0.0 | 1.7 | 0.00 | 0.00 | 0.44 | 83 | 1010.0 |
| 20260506165710 | 52 | 245 | 0.0 | 1.7 | 0.00 | 0.00 | 0.44 | 84 | 1010.0 |
| 20260506165210 | 51 | 245 | 0.9 | 0.9 | 0.00 | 0.00 | 0.44 | 83 | 1010.0 |
| 20260506164709 | 51 | 245 | 0.9 | 0.9 | 0.00 | 0.00 | 0.44 | 83 | 1010.0 |
| 20260506164209 | 51 | 245 | 0.9 | 0.9 | 0.00 | 0.00 | 0.44 | 82 | 1010.0 |
| 20260506163710 | 51 | 245 | 0.9 | 0.9 | 0.00 | 0.00 | 0.44 | 83 | 1010.0 |
| 20260506163211 | 52 | 245 | 0.9 | 2.6 | 0.00 | 0.00 | 0.44 | 85 | 1010.0 |
| 20260506162709 | 51 | 245 | 0.0 | 0.9 | 0.00 | 0.00 | 0.44 | 87 | 1010.0 |
| 20260506162211 | 51 | 245 | 0.0 | 0.0 | 0.00 | 0.00 | 0.44 | 87 | 1010.0 |
| 20260506161710 | 50 | 245 | 0.9 | 0.9 | 0.00 | 0.00 | 0.44 | 87 | 1010.0 |
| 20260506161210 | 50 | 245 | 0.9 | 1.7 | 0.00 | 0.00 | 0.44 | 88 | 1010.0 |
| 20260506160709 | 50 | 245 | 0.0 | 0.9 | 0.00 | 0.00 | 0.44 | 89 | 1010.0 |
| 20260506160210 | 50 | 245 | 0.0 | 2.6 | 0.00 | 0.00 | 0.44 | 88 | 1010.0 |
| 20260506155709 | 50 | 245 | 0.9 | 0.9 | 0.00 | 0.00 | 0.44 | 90 | 1010.0 |
| 20260506155210 | 50 | 245 | 0.0 | 1.7 | 0.00 | 0.00 | 0.44 | 90 | 1010.0 |
| 20260506154709 | 50 | 245 | 0.0 | 0.9 | 0.00 | 0.00 | 0.44 | 90 | 1010.0 |
| 20260506154209 | 50 | 245 | 1.7 | 1.7 | 0.00 | 0.00 | 0.44 | 91 | 1010.0 |
| 20260506153709 | 49 | 245 | 0.9 | 0.9 | 0.00 | 0.00 | 0.44 | 91 | 1010.0 |
| 20260506153210 | 49 | 245 | 0.9 | 1.7 | 0.00 | 0.00 | 0.44 | 91 | 1010.0 |
| 20260506152709 | 49 | 245 | 1.7 | 1.7 | 0.00 | 0.00 | 0.44 | 92 | 1010.0 |
| 20260506152210 | 49 | 245 | 0.0 | 0.0 | 0.00 | 0.00 | 0.44 | 93 | 1010.0 |
| 20260506151710 | 49 | 245 | 0.0 | 0.0 | 0.00 | 0.00 | 0.44 | 93 | 1010.0 |
| 20260506151209 | 49 | 245 | 0.0 | 0.0 | 0.00 | 0.00 | 0.44 | 94 | 1010.0 |
| 20260506150711 | 49 | 245 | 0.0 | 0.0 | 0.01 | 0.00 | 0.44 | 95 | 1010.0 |
| 20260506150210 | 49 | 245 | 0.0 | 0.9 | 0.01 | 0.00 | 0.44 | 95 | 1010.0 |
| 20260506145709 | 49 | 245 | 0.0 | 0.9 | 0.01 | 0.00 | 0.44 | 95 | 1010.0 |